Flag for U.S.A. Weather past 2 weeks in Louisville, Kentucky, U.S.A.

Now
78 °F

Overcast.


Feels Like: 80 °F
Forecast: 69 / 83 °F
Wind: 6 mph from East

Location: Standiford Field

Current Time: Jul 5, 2015 at 1:41:04 PM

Latest Report: Jul 5, 2015 at 12:56 PM


Visibility: 8 mi

Pressure: 30.06 "Hg

Humidity: 66%

Dew point: 66 °F

Location of LouisvilleLocation

Historic Weather in Louisville — Graph

°F

Louisville temperature yesterday

Maximum temperature yesterday: 83 °F (at 2:56 PM)
Minimum temperature yesterday: 69 °F (at 5:56 AM)
Average temperature yesterday: 76 °F

Past Weeks' High & Low Weather Summary

 TemperatureHumidityPressure
High91 °F (Jun 23, 5:56 PM)94% (Jun 20, 11:56 AM)30.15 "Hg (Jun 20, 11:56 AM)
Low60 °F (Jun 28, 5:56 AM)31% (Jun 24, 3:56 PM)29.75 "Hg (Jun 27, 3:56 AM)
Average77 °F71%29.92 "Hg
* Reported Jun 20 11:56 AM — Jul 5 11:56 AM, Louisville, Weather by CustomWeather, © 2015

Note: Actual official high and low records may vary slightly from our data, if they occured in-between our weather recording intervals... More about our weather records

Advertising

Louisville weather history for previous 24 hours

 ConditionsComfort  
Time TempWeatherWind HumidityBarometerVisibility
11:56 AM
Sun, Jul 5
76 °FOvercast.7 mph72%30.07 "Hg7 mi
10:56 AM75 °FOvercast.6 mph76%30.06 "Hg7 mi
9:56 AM73 °FMore clouds than sun.5 mph81%30.06 "Hg6 mi
8:56 AM72 °FMostly cloudy.5 mph84%30.06 "Hg5 mi
7:56 AM71 °FFog.5 mph87%30.05 "Hg4 mi
6:56 AM71 °FFog.6 mph87%30.04 "Hg3 mi
5:56 AM71 °FFog.7 mph87%30.02 "Hg4 mi
4:56 AM72 °FOvercast.3 mph84%30.01 "Hg5 mi
3:56 AM74 °FOvercast.No wind79%29.99 "Hg6 mi
2:56 AM74 °FOvercast.3 mph79%29.99 "Hg6 mi
1:56 AM75 °FOvercast.6 mph76%30.01 "Hg6 mi
12:56 AM76 °FOvercast.5 mph74%30.01 "Hg4 mi
11:56 PM
Sat, Jul 4
77 °FMostly cloudy.6 mph71%30.01 "Hg4 mi
10:56 PM78 °FMostly cloudy.7 mph69%30.00 "Hg4 mi
9:56 PM79 °FCloudy.6 mph67%29.98 "Hg7 mi
8:56 PM80 °FMostly cloudy.6 mph62%29.97 "Hg9 mi
7:56 PM81 °FPartly sunny.5 mph58%29.95 "Hg10 mi
6:56 PM81 °FBroken clouds.6 mph58%29.94 "Hg10 mi
5:56 PM82 °FPartly sunny.5 mph56%29.94 "Hg9 mi
4:56 PM83 °FBroken clouds.No wind53%29.95 "Hg8 mi
3:56 PM83 °FBroken clouds.No wind55%29.96 "Hg9 mi
2:56 PM83 °FCloudy.6 mph57%29.97 "Hg9 mi
1:56 PM82 °FMostly cloudy.3 mph56%29.98 "Hg9 mi
Weather by CustomWeather, © 2015

See weather overviewHow to use our weather pages